Volver al catálogo

STARLINK-3619

ActivoComunicacionesVLEO
NORAD 51787·PAYLOAD·🇺🇸 United States

Lanzado Feb 25, 2022 desde Vandenberg Space Force Base

Loading…

Próximos Pases (próximas 24 horas)

TLE

ActualizadoSource: CelesTrak SupGP

Época: Sep 14, 2026, 20:50 UTC

1 51787C 22017V   26257.86854167  .00010676  00000+0  31537-3 0  2575
2 51787  53.1587 203.6984 0001426  91.2654  46.0894 15.34389305    14

Sigue STARLINK-3619 en tiempo real con AllMySat

Download on the App Store